Temp
-2 -2 -2 -2 -2 -2 -2 -2 -3 -3 -3 -3 -3 -3 -4 -4 -4 -4 -4 -4 -4 -4 -4 -4 -5 -5 -5 -5 -5 -5 -6 -6 -6 -6 -6 -7 -7 -7 -8 -8 -9 -9 -9 -8 -8 -8 -8 -7 -7 -7 -7 -7 -6 -6 -6 -6 -6 -6 -6 -7 -6 -6 -6
-2 -3 -3 -3 -3 -3 -3 -3 -3 -3 -3 -4 -4 -4 -4 -4 -4 -4 -4 -4 -5 -5 -5 -5 -5 -5 -5 -5 -6 -6 -6 -6 -6 -7 -7 -7 -7 -8 -8 -8 -9 -9 -9 -9 -8 -8 -8 -8 -8 -8 -8 -8 -8 -7 -7 -7 -7 -7 -7 -7 -7 -7 -7
-3 -3 -3 -3 -3 -3 -3 -3 -4 -4 -4 -4 -4 -4 -4 -5 -5 -5 -5 -5 -5 -5 -5 -5 -6 -6 -6 -6 -6 -6 -6 -7 -7 -7 -7 -7 -8 -8 -8 -8 -9 -9 -9 -9 -9 -9 -9 -9 -9 -9 -9 -9 -9 -9 -8 -8 -8 -8 -8 -8 -8 -8 -8
-4 -4 -4 -4 -4 -4 -4 -4 -4 -4 -4 -4 -4 -5 -5 -5 -5 -5 -5 -5 -5 -6 -6 -6 -6 -6 -6 -6 -6 -6 -7 -7 -7 -7 -8 -8 -8 -8 -8 -9 -9 -9 -10 -10 -10 -10 -10 -10 -10 -10 -10 -10 -10 -10 -10 -9 -9 -9 -9 -9 -8 -9 -9
-4 -4 -4 -4 -4 -4 -4 -4 -4 -4 -4 -5 -5 -5 -5 -5 -5 -5 -5 -5 -6 -6 -6 -6 -6 -6 -6 -7 -7 -7 -7 -7 -8 -8 -8 -8 -8 -9 -9 -9 -9 -10 -10 -11 -11 -11 -11 -11 -11 -10 -10 -10 -10 -10 -10 -10 -10 -11 -10 -10 -9 -9 -9
-5 -5 -5 -4 -4 -4 -4 -4 -5 -5 -5 -5 -5 -5 -5 -5 -6 -6 -6 -6 -6 -6 -6 -6 -6 -7 -7 -7 -7 -7 -8 -8 -8 -9 -9 -9 -9 -9 -10 -10 -10 -10 -11 -11 -11 -11 -11 -11 -12 -11 -11 -11 -11 -11 -11 -11 -11 -11 -12 -11 -11 -11 -10
-5 -5 -5 -5 -5 -5 -5 -5 -5 -5 -5 -5 -5 -6 -6 -6 -6 -6 -6 -6 -6 -6 -7 -7 -7 -7 -7 -7 -8 -8 -8 -8 -9 -9 -9 -10 -10 -10 -10 -11 -11 -11 -11 -11 -12 -12 -12 -12 -12 -12 -12 -11 -12 -12 -12 -13 -13 -13 -12 -12 -12 -12 -11
-5 -5 -5 -5 -5 -5 -5 -5 -5 -5 -5 -5 -6 -6 -6 -6 -6 -6 -6 -7 -7 -7 -7 -7 -7 -7 -8 -8 -8 -8 -8 -9 -9 -10 -10 -10 -11 -11 -11 -11 -12 -12 -12 -12 -13 -13 -13 -14 -14 -13 -13 -13 -13 -14 -14 -14 -15 -14 -13 -13 -13 -12 -12
-6 -5 -5 -5 -5 -5 -6 -6 -6 -6 -6 -6 -6 -6 -6 -7 -7 -7 -7 -7 -7 -7 -7 -7 -8 -8 -8 -8 -8 -9 -9 -9 -9 -10 -10 -11 -11 -11 -12 -12 -12 -12 -13 -13 -13 -14 -15 -15 -15 -14 -14 -15 -15 -15 -15 -15 -15 -15 -14 -14 -14 -13 -13
-6 -6 -6 -6 -6 -6 -6 -6 -6 -6 -6 -6 -7 -7 -7 -7 -7 -7 -7 -7 -7 -8 -8 -8 -8 -8 -8 -9 -9 -9 -9 -9 -10 -10 -11 -11 -12 -12 -12 -12 -13 -13 -13 -14 -14 -14 -15 -15 -14 -14 -15 -16 -16 -16 -16 -16 -16 -16 -16 -16 -15 -15 -14
-6 -6 -6 -6 -6 -6 -6 -6 -6 -7 -7 -7 -7 -7 -7 -7 -7 -8 -8 -8 -8 -8 -8 -8 -8 -9 -9 -9 -9 -9 -9 -10 -10 -11 -12 -12 -13 -13 -13 -13 -13 -13 -14 -14 -14 -15 -15 -15 -15 -15 -16 -17 -17 -17 -17 -17 -17 -17 -17 -17 -17 -16 -15
-6 -6 -7 -7 -7 -7 -7 -7 -7 -7 -7 -8 -8 -8 -8 -8 -8 -8 -8 -8 -8 -8 -9 -9 -9 -9 -9 -9 -10 -10 -10 -10 -11 -11 -12 -12 -13 -13 -13 -14 -14 -14 -15 -15 -16 -16 -15 -16 -16 -16 -17 -18 -18 -18 -18 -18 -18 -18 -18 -18 -18 -18 -17
-7 -7 -7 -7 -7 -7 -7 -7 -7 -8 -8 -8 -8 -8 -8 -8 -8 -8 -8 -9 -9 -9 -9 -9 -9 -9 -9 -10 -10 -10 -11 -11 -11 -11 -11 -12 -12 -13 -13 -14 -15 -15 -16 -16 -17 -17 -16 -16 -16 -17 -17 -18 -18 -18 -18 -18 -18 -19 -19 -19 -19 -18 -18
-7 -7 -7 -7 -7 -7 -8 -8 -8 -8 -8 -8 -8 -9 -8 -8 -9 -9 -9 -9 -9 -10 -10 -10 -10 -10 -10 -10 -10 -10 -11 -11 -11 -11 -11 -12 -12 -13 -13 -14 -15 -15 -16 -17 -17 -18 -17 -16 -17 -17 -17 -18 -18 -19 -19 -19 -19 -19 -20 -20 -19 -19 -18
-8 -8 -8 -8 -8 -8 -8 -8 -8 -8 -9 -9 -9 -9 -9 -9 -9 -9 -9 -10 -10 -10 -10 -10 -10 -10 -10 -10 -11 -11 -12 -12 -12 -12 -12 -12 -13 -14 -14 -14 -15 -15 -16 -17 -18 -18 -18 -18 -18 -18 -18 -18 -19 -19 -20 -20 -20 -20 -20 -20 -20 -20 -19
-8 -8 -8 -8 -8 -8 -9 -9 -9 -9 -9 -9 -9 -9 -9 -10 -10 -10 -10 -10 -10 -11 -11 -11 -11 -11 -11 -11 -12 -12 -12 -13 -13 -13 -13 -14 -14 -15 -15 -15 -15 -15 -16 -17 -18 -18 -18 -18 -18 -18 -19 -19 -20 -20 -20 -20 -21 -21 -21 -21 -20 -20 -20
-8 -8 -8 -9 -8 -9 -9 -9 -9 -9 -9 -10 -10 -10 -10 -10 -10 -11 -11 -11 -11 -11 -11 -11 -12 -12 -12 -12 -13 -13 -13 -14 -14 -14 -15 -15 -15 -15 -15 -15 -15 -15 -16 -16 -17 -18 -19 -19 -19 -19 -20 -20 -20 -20 -20 -20 -21 -21 -21 -21 -21 -21 -20
-9 -9 -9 -9 -9 -9 -10 -10 -10 -10 -10 -10 -10 -11 -11 -11 -11 -11 -11 -11 -12 -12 -12 -12 -12 -13 -13 -13 -13 -14 -14 -14 -15 -15 -15 -16 -16 -15 -15 -15 -15 -16 -16 -16 -17 -17 -18 -19 -19 -19 -20 -20 -20 -21 -20 -20 -20 -21 -21 -21 -21 -21 -21
-9 -9 -9 -9 -10 -10 -10 -10 -10 -10 -10 -11 -11 -11 -12 -12 -12 -12 -12 -12 -12 -12 -12 -13 -13 -13 -13 -14 -14 -14 -14 -14 -15 -16 -16 -16 -16 -16 -15 -16 -17 -17 -17 -17 -17 -18 -19 -19 -20 -20 -20 -20 -20 -21 -21 -21 -21 -21 -21 -22 -22 -22 -22
-9 -10 -10 -10 -10 -10 -10 -10 -10 -11 -11 -11 -12 -12 -12 -12 -13 -13 -13 -13 -13 -13 -13 -13 -13 -14 -14 -14 -14 -14 -14 -15 -16 -16 -17 -17 -17 -17 -17 -17 -18 -18 -18 -19 -19 -19 -20 -20 -20 -20 -20 -20 -20 -20 -21 -21 -21 -21 -22 -22 -22 -22 -22
-10 -10 -10 -10 -10 -10 -11 -11 -11 -12 -12 -12 -12 -13 -13 -13 -13 -13 -13 -13 -13 -13 -14 -14 -14 -14 -14 -14 -14 -14 -15 -15 -16 -17 -18 -18 -18 -18 -18 -19 -19 -19 -20 -21 -21 -21 -21 -21 -21 -20 -20 -20 -20 -20 -21 -21 -21 -22 -22 -22 -23 -23 -23
-11 -10 -10 -10 -11 -11 -11 -12 -12 -12 -12 -13 -13 -14 -14 -14 -14 -14 -14 -14 -14 -14 -14 -14 -15 -15 -15 -15 -15 -15 -15 -16 -17 -17 -18 -18 -19 -20 -20 -20 -21 -21 -21 -22 -22 -22 -22 -22 -22 -21 -21 -21 -21 -21 -21 -21 -21 -22 -22 -22 -23 -23 -23
-11 -11 -11 -11 -11 -11 -12 -12 -13 -13 -13 -14 -14 -14 -14 -14 -15 -15 -15 -15 -15 -15 -15 -15 -15 -15 -15 -15 -15 -16 -16 -17 -17 -18 -18 -18 -19 -20 -21 -21 -21 -22 -22 -22 -22 -23 -23 -22 -22 -22 -22 -21 -21 -21 -22 -22 -22 -22 -22 -22 -22 -22 -22
-11 -11 -11 -11 -12 -12 -12 -13 -13 -13 -14 -14 -14 -15 -15 -15 -15 -15 -15 -16 -16 -16 -16 -16 -16 -16 -16 -16 -16 -16 -17 -18 -18 -18 -18 -19 -19 -20 -21 -21 -22 -22 -22 -22 -23 -23 -22 -22 -22 -22 -22 -22 -22 -22 -22 -21 -22 -22 -22 -22 -22 -22 -22
-11 -11 -12 -12 -12 -13 -13 -13 -14 -14 -14 -15 -15 -15 -15 -15 -16 -16 -16 -16 -16 -16 -17 -17 -17 -17 -17 -17 -17 -17 -18 -18 -18 -18 -19 -19 -20 -20 -21 -21 -22 -22 -23 -23 -23 -22 -22 -23 -23 -23 -23 -23 -22 -22 -22 -22 -22 -22 -22 -22 -22 -22 -21
-12 -12 -12 -13 -13 -13 -13 -14 -14 -14 -15 -15 -15 -15 -15 -16 -16 -16 -16 -17 -17 -17 -17 -18 -18 -18 -18 -18 -18 -18 -18 -18 -19 -19 -19 -19 -20 -21 -21 -21 -22 -22 -23 -24 -23 -23 -23 -23 -23 -23 -23 -23 -23 -22 -22 -22 -22 -22 -22 -22 -22 -22 -21
-13 -13 -13 -14 -14 -14 -14 -14 -14 -15 -15 -15 -15 -16 -16 -16 -16 -16 -16 -17 -17 -17 -18 -18 -18 -18 -18 -18 -18 -19 -19 -19 -19 -20 -20 -20 -20 -21 -21 -21 -22 -22 -23 -23 -23 -23 -24 -24 -23 -23 -23 -23 -23 -23 -22 -22 -22 -22 -22 -22 -22 -22 -22
-13 -14 -14 -14 -15 -15 -15 -15 -15 -15 -15 -16 -16 -16 -16 -16 -17 -17 -17 -17 -18 -18 -18 -18 -18 -18 -17 -18 -18 -18 -19 -19 -19 -20 -20 -20 -21 -21 -21 -22 -22 -22 -22 -23 -23 -23 -24 -23 -23 -24 -24 -23 -23 -23 -22 -22 -22 -22 -22 -22 -23 -22 -22
-14 -14 -15 -15 -15 -15 -15 -15 -15 -15 -16 -16 -17 -17 -17 -17 -18 -18 -18 -18 -19 -19 -19 -19 -18 -18 -18 -18 -19 -19 -19 -19 -19 -20 -20 -20 -21 -21 -22 -22 -22 -22 -22 -22 -23 -23 -23 -23 -23 -23 -23 -23 -23 -23 -23 -22 -22 -22 -22 -22 -23 -22 -22
-15 -15 -15 -15 -15 -15 -15 -16 -16 -16 -17 -17 -17 -17 -17 -17 -18 -18 -19 -19 -19 -20 -20 -19 -19 -19 -19 -19 -19 -20 -20 -20 -20 -21 -21 -21 -21 -21 -22 -22 -22 -22 -22 -22 -23 -23 -23 -23 -23 -23 -23 -23 -23 -23 -23 -23 -22 -22 -23 -23 -23 -23 -22
-15 -15 -15 -16 -16 -16 -16 -16 -16 -16 -17 -17 -17 -18 -18 -17 -18 -18 -19 -19 -20 -20 -20 -20 -20 -20 -20 -20 -20 -20 -21 -21 -21 -21 -21 -22 -22 -22 -22 -22 -22 -23 -23 -23 -23 -23 -23 -23 -23 -23 -23 -23 -23 -23 -23 -23 -23 -23 -23 -23 -23 -23 -23
-15 -15 -16 -16 -16 -16 -16 -16 -16 -17 -17 -18 -18 -18 -18 -18 -18 -19 -20 -20 -21 -21 -20 -20 -20 -20 -20 -21 -21 -21 -21 -22 -22 -22 -22 -22 -22 -22 -22 -22 -22 -22 -23 -23 -23 -23 -23 -23 -23 -23 -23 -23 -23 -23 -23 -23 -23 -23 -23 -23 -23 -23 -23
-15 -16 -16 -16 -16 -16 -16 -16 -17 -17 -18 -18 -18 -18 -18 -19 -19 -20 -20 -21 -21 -21 -20 -20 -21 -21 -21 -21 -22 -22 -22 -22 -22 -22 -22 -22 -22 -22 -22 -23 -23 -23 -23 -23 -23 -23 -23 -23 -23 -23 -23 -23 -23 -23 -23 -23 -23 -23 -23 -23 -23 -23 -23
-15 -15 -16 -16 -16 -16 -16 -17 -17 -18 -18 -19 -19 -19 -19 -20 -20 -20 -21 -21 -21 -21 -21 -21 -22 -22 -22 -22 -22 -23 -23 -23 -23 -23 -22 -22 -22 -22 -22 -22 -23 -23 -23 -23 -23 -23 -23 -23 -23 -23 -24 -24 -24 -24 -24 -24 -23 -23 -24 -24 -24 -23 -23
-15 -15 -16 -16 -16 -16 -16 -17 -18 -18 -19 -19 -19 -19 -20 -21 -21 -21 -21 -21 -21 -21 -21 -21 -22 -22 -22 -22 -23 -23 -23 -23 -23 -23 -23 -22 -22 -22 -22 -22 -22 -23 -23 -23 -23 -23 -23 -23 -23 -24 -24 -24 -24 -24 -24 -24 -24 -24 -24 -24 -24 -24 -24
-16 -16 -16 -16 -16 -16 -17 -18 -18 -19 -19 -19 -19 -20 -21 -21 -21 -21 -21 -21 -21 -21 -21 -21 -22 -22 -22 -22 -23 -23 -23 -23 -23 -23 -23 -23 -23 -23 -23 -22 -22 -22 -23 -23 -23 -23 -23 -23 -24 -24 -24 -24 -24 -24 -24 -24 -24 -24 -24 -24 -24 -24 -24
Height
1468 1468 1469 1470 1470 1471 1471 1472 1472 1473 1473 1473 1473 1473 1473 1473 1473 1472 1472 1471 1471 1470 1470 1469 1469 1468 1468 1467 1467 1466 1466 1465 1464 1463 1463 1462 1461 1460 1460 1458 1456 1453 1450 1450 1451 1450 1449 1449 1447 1445 1445 1443 1441 1440 1439 1437 1436 1434 1433 1431 1430 1429 1428
1467 1468 1468 1469 1470 1470 1470 1471 1471 1472 1471 1471 1471 1471 1471 1471 1471 1471 1470 1470 1469 1468 1468 1467 1467 1467 1466 1466 1465 1465 1464 1463 1463 1462 1461 1460 1459 1458 1457 1456 1454 1451 1448 1446 1446 1446 1445 1445 1444 1442 1441 1440 1438 1437 1435 1434 1433 1431 1430 1428 1427 1426 1425
1466 1467 1467 1468 1469 1469 1470 1470 1470 1470 1470 1469 1469 1469 1470 1470 1469 1469 1468 1468 1467 1466 1466 1465 1465 1465 1464 1464 1463 1463 1462 1461 1460 1459 1458 1457 1456 1455 1454 1453 1452 1449 1446 1443 1442 1442 1442 1441 1440 1439 1437 1436 1435 1433 1432 1430 1429 1428 1426 1425 1424 1422 1421
1465 1466 1466 1467 1468 1468 1469 1469 1469 1468 1468 1468 1467 1468 1468 1468 1468 1467 1466 1466 1465 1465 1464 1463 1463 1462 1462 1462 1461 1460 1459 1458 1458 1457 1455 1454 1453 1452 1451 1450 1449 1447 1445 1441 1438 1438 1438 1438 1437 1436 1435 1433 1431 1430 1428 1426 1425 1423 1422 1421 1421 1419 1417
1464 1465 1465 1466 1467 1467 1467 1467 1467 1467 1466 1466 1466 1466 1466 1466 1466 1465 1465 1464 1463 1463 1462 1461 1461 1460 1460 1459 1459 1458 1457 1456 1455 1453 1452 1451 1450 1449 1448 1447 1446 1444 1442 1439 1436 1435 1435 1435 1434 1433 1432 1430 1428 1426 1424 1423 1421 1419 1418 1417 1416 1415 1414
1463 1463 1464 1465 1465 1466 1466 1466 1466 1465 1465 1464 1464 1464 1464 1464 1464 1463 1463 1462 1461 1460 1460 1459 1458 1458 1457 1457 1456 1455 1454 1453 1452 1450 1449 1448 1447 1446 1445 1443 1442 1441 1439 1437 1435 1433 1431 1431 1430 1429 1428 1428 1425 1423 1421 1419 1417 1416 1414 1413 1412 1411 1410
1462 1462 1463 1464 1464 1464 1464 1464 1464 1464 1463 1462 1462 1462 1462 1462 1462 1461 1461 1460 1459 1458 1457 1457 1456 1455 1455 1454 1453 1453 1451 1450 1449 1447 1445 1444 1443 1442 1441 1440 1439 1438 1436 1434 1432 1430 1428 1427 1426 1425 1424 1423 1422 1420 1418 1416 1414 1412 1411 1410 1408 1407 1406
1460 1461 1461 1462 1462 1462 1462 1462 1462 1461 1461 1460 1460 1460 1460 1460 1460 1459 1458 1458 1457 1456 1455 1455 1454 1453 1453 1452 1451 1450 1449 1447 1446 1444 1442 1441 1440 1439 1438 1436 1435 1433 1432 1430 1428 1426 1425 1423 1422 1421 1420 1419 1418 1417 1415 1414 1412 1409 1407 1407 1405 1404 1403
1459 1460 1460 1460 1460 1461 1461 1460 1460 1459 1458 1458 1458 1458 1459 1458 1458 1457 1456 1456 1455 1454 1453 1452 1452 1451 1451 1450 1448 1447 1446 1445 1443 1441 1440 1439 1437 1436 1434 1433 1431 1430 1428 1427 1425 1423 1422 1420 1419 1418 1417 1416 1415 1414 1412 1411 1409 1407 1405 1404 1402 1401 1401
1458 1458 1458 1458 1458 1459 1458 1458 1458 1457 1457 1456 1456 1457 1457 1456 1456 1455 1454 1454 1452 1451 1451 1450 1449 1449 1448 1447 1445 1444 1442 1441 1440 1438 1437 1436 1434 1433 1431 1430 1428 1427 1425 1424 1421 1420 1419 1417 1415 1415 1415 1413 1412 1411 1409 1408 1406 1404 1403 1402 1399 1398 1399
1456 1456 1456 1456 1456 1456 1456 1456 1455 1455 1455 1455 1454 1454 1454 1453 1453 1452 1452 1451 1450 1449 1448 1448 1447 1446 1445 1443 1442 1440 1439 1437 1436 1434 1433 1432 1431 1430 1429 1427 1425 1424 1423 1421 1419 1417 1416 1414 1412 1412 1411 1410 1409 1408 1407 1405 1404 1402 1401 1400 1398 1395 1395
1455 1455 1455 1455 1455 1454 1454 1454 1453 1453 1453 1453 1452 1451 1451 1451 1450 1450 1449 1448 1447 1447 1446 1445 1444 1443 1441 1440 1439 1437 1435 1434 1432 1431 1430 1428 1427 1426 1425 1424 1423 1421 1420 1418 1416 1413 1412 1411 1409 1408 1408 1407 1406 1405 1405 1403 1402 1400 1399 1398 1396 1393 1392
1453 1454 1454 1453 1453 1453 1453 1452 1452 1452 1452 1451 1450 1450 1449 1449 1448 1448 1447 1446 1445 1445 1444 1443 1441 1440 1439 1437 1435 1434 1432 1430 1429 1427 1426 1425 1423 1422 1421 1420 1419 1418 1417 1415 1413 1410 1408 1408 1407 1405 1404 1404 1404 1402 1401 1400 1399 1398 1397 1395 1393 1391 1389
1452 1452 1452 1452 1452 1451 1451 1451 1451 1450 1450 1449 1448 1448 1447 1446 1446 1445 1445 1444 1443 1442 1441 1440 1438 1437 1435 1434 1433 1431 1429 1427 1426 1424 1423 1422 1420 1419 1417 1416 1416 1415 1413 1412 1410 1407 1404 1404 1404 1402 1401 1401 1401 1400 1399 1397 1396 1395 1394 1392 1390 1388 1386
1450 1450 1450 1450 1450 1450 1449 1449 1449 1448 1448 1447 1446 1445 1444 1443 1443 1442 1442 1442 1441 1440 1438 1437 1435 1434 1433 1431 1430 1429 1427 1425 1423 1421 1419 1418 1417 1415 1414 1413 1412 1411 1409 1408 1406 1403 1401 1400 1400 1399 1398 1398 1398 1397 1396 1395 1393 1392 1391 1389 1387 1385 1383
1448 1449 1449 1448 1448 1447 1446 1446 1446 1445 1444 1444 1443 1442 1441 1440 1440 1440 1439 1439 1438 1437 1435 1434 1433 1431 1429 1428 1427 1426 1424 1422 1419 1417 1415 1414 1413 1411 1410 1408 1407 1406 1405 1404 1402 1399 1398 1397 1396 1396 1395 1395 1396 1395 1393 1392 1390 1389 1389 1387 1384 1382 1381
1446 1446 1446 1445 1445 1445 1444 1443 1443 1442 1441 1440 1439 1438 1438 1437 1437 1436 1436 1435 1434 1433 1432 1430 1429 1427 1425 1424 1423 1422 1420 1418 1415 1413 1411 1409 1408 1407 1406 1405 1404 1402 1401 1400 1398 1396 1394 1393 1392 1392 1392 1392 1393 1392 1391 1389 1387 1387 1387 1385 1382 1380 1379
1444 1443 1443 1443 1443 1442 1442 1441 1440 1439 1438 1437 1436 1435 1434 1434 1433 1432 1432 1431 1430 1429 1428 1426 1425 1424 1422 1420 1418 1417 1415 1413 1411 1408 1407 1405 1404 1403 1402 1401 1400 1398 1396 1395 1394 1392 1391 1390 1389 1388 1388 1388 1389 1388 1388 1387 1384 1384 1384 1382 1380 1378 1376
1441 1441 1441 1441 1440 1440 1439 1438 1437 1436 1435 1434 1433 1432 1431 1430 1429 1429 1428 1427 1426 1425 1423 1422 1421 1419 1418 1416 1414 1412 1411 1409 1407 1405 1404 1402 1400 1399 1398 1397 1396 1394 1392 1390 1389 1388 1388 1387 1386 1385 1384 1384 1384 1384 1384 1383 1381 1381 1380 1379 1377 1376 1374
1439 1439 1439 1438 1438 1437 1436 1436 1435 1433 1432 1431 1430 1429 1428 1427 1426 1425 1424 1423 1422 1421 1419 1418 1416 1415 1414 1412 1410 1409 1407 1406 1404 1402 1400 1399 1396 1394 1394 1393 1392 1389 1388 1386 1385 1384 1383 1383 1383 1382 1381 1380 1380 1380 1379 1379 1378 1377 1377 1375 1374 1373 1372
1437 1437 1436 1436 1435 1434 1433 1432 1431 1430 1429 1428 1427 1426 1424 1423 1423 1422 1421 1419 1418 1417 1415 1414 1412 1411 1410 1408 1407 1405 1403 1402 1400 1398 1396 1394 1392 1391 1390 1389 1387 1385 1384 1383 1381 1380 1379 1379 1379 1379 1378 1377 1376 1375 1375 1374 1374 1373 1373 1372 1370 1369 1368
1434 1434 1434 1433 1432 1431 1430 1429 1428 1427 1426 1425 1424 1422 1421 1420 1419 1418 1417 1415 1414 1412 1411 1410 1408 1407 1406 1404 1402 1400 1399 1397 1396 1394 1391 1390 1388 1387 1386 1385 1383 1381 1380 1379 1378 1378 1377 1376 1376 1375 1375 1374 1372 1372 1371 1370 1369 1369 1368 1368 1367 1366 1364
1431 1431 1431 1430 1429 1428 1427 1426 1425 1425 1424 1422 1421 1419 1418 1416 1415 1414 1412 1410 1409 1408 1406 1405 1404 1403 1401 1400 1398 1396 1394 1392 1390 1389 1387 1385 1384 1383 1382 1381 1379 1378 1377 1376 1375 1375 1374 1374 1373 1372 1372 1371 1370 1368 1367 1366 1366 1365 1364 1363 1363 1362 1361
1428 1428 1427 1427 1426 1425 1424 1423 1423 1422 1421 1419 1418 1416 1414 1413 1411 1410 1408 1406 1404 1403 1401 1400 1399 1398 1396 1394 1393 1391 1389 1387 1385 1384 1382 1381 1380 1379 1378 1377 1375 1374 1374 1373 1372 1371 1371 1370 1370 1369 1368 1368 1366 1365 1364 1363 1363 1362 1361 1360 1359 1358 1358
1425 1424 1424 1424 1423 1423 1422 1421 1420 1419 1417 1416 1414 1412 1411 1409 1407 1405 1404 1401 1399 1398 1396 1395 1393 1392 1390 1389 1387 1385 1384 1382 1380 1379 1378 1377 1376 1375 1374 1373 1372 1371 1370 1369 1368 1368 1367 1367 1366 1366 1365 1363 1363 1362 1361 1360 1359 1358 1358 1357 1356 1355 1354
1422 1421 1421 1420 1420 1419 1419 1418 1416 1415 1413 1411 1409 1408 1406 1405 1403 1401 1399 1397 1395 1393 1391 1389 1388 1386 1384 1383 1382 1380 1379 1377 1376 1375 1374 1373 1372 1371 1369 1369 1368 1367 1367 1366 1365 1364 1363 1363 1363 1362 1361 1359 1359 1358 1358 1357 1356 1355 1354 1354 1352 1351 1351
1419 1419 1418 1417 1416 1415 1414 1414 1413 1411 1409 1407 1404 1403 1402 1399 1398 1396 1394 1391 1389 1388 1386 1383 1382 1380 1379 1378 1377 1376 1374 1373 1372 1370 1369 1368 1367 1366 1365 1364 1364 1363 1363 1362 1361 1360 1359 1359 1359 1358 1357 1356 1355 1355 1354 1354 1353 1352 1352 1351 1350 1348 1347
1416 1416 1415 1413 1412 1411 1409 1409 1409 1408 1405 1403 1401 1399 1397 1394 1392 1390 1387 1385 1383 1382 1379 1377 1376 1374 1373 1373 1373 1371 1370 1369 1367 1366 1364 1364 1363 1362 1361 1360 1359 1359 1358 1357 1357 1356 1355 1355 1355 1354 1353 1353 1352 1352 1351 1351 1350 1349 1349 1348 1347 1345 1344
1413 1412 1411 1409 1408 1407 1405 1404 1404 1403 1401 1398 1396 1394 1392 1389 1386 1384 1381 1379 1378 1377 1374 1372 1371 1369 1368 1367 1366 1365 1364 1364 1362 1361 1360 1359 1359 1358 1357 1356 1355 1354 1354 1353 1353 1352 1351 1351 1351 1350 1350 1349 1349 1348 1348 1347 1347 1346 1346 1345 1344 1343 1342
1409 1408 1406 1404 1403 1402 1400 1399 1398 1397 1395 1393 1391 1389 1386 1384 1382 1379 1377 1375 1374 1372 1370 1368 1366 1364 1363 1363 1362 1360 1360 1360 1358 1357 1356 1355 1354 1354 1353 1352 1351 1350 1350 1349 1349 1348 1348 1347 1347 1346 1346 1345 1345 1345 1345 1344 1344 1343 1343 1342 1341 1340 1339
1405 1404 1403 1400 1398 1397 1395 1394 1392 1391 1389 1387 1386 1384 1381 1379 1377 1374 1372 1372 1371 1368 1365 1363 1361 1359 1359 1359 1358 1356 1356 1355 1354 1353 1352 1351 1350 1349 1348 1348 1347 1347 1346 1345 1344 1344 1343 1343 1343 1343 1342 1342 1342 1342 1342 1341 1341 1340 1340 1339 1338 1337 1337
1401 1400 1398 1396 1393 1391 1389 1388 1387 1385 1383 1381 1380 1378 1376 1374 1372 1369 1368 1368 1366 1363 1360 1359 1357 1356 1355 1355 1353 1352 1351 1350 1349 1348 1347 1347 1346 1345 1344 1344 1343 1343 1343 1341 1340 1340 1340 1339 1339 1339 1339 1339 1338 1338 1338 1338 1338 1337 1337 1336 1335 1335 1334
1396 1395 1393 1391 1389 1387 1385 1383 1381 1379 1377 1376 1374 1373 1371 1369 1366 1364 1363 1363 1361 1358 1356 1355 1353 1351 1351 1350 1348 1347 1346 1345 1345 1344 1343 1342 1341 1341 1340 1340 1339 1339 1338 1337 1336 1336 1336 1335 1335 1335 1335 1335 1335 1335 1335 1335 1335 1335 1334 1333 1333 1332 1331
1391 1390 1388 1386 1385 1383 1380 1378 1376 1374 1372 1370 1369 1368 1366 1363 1360 1358 1358 1358 1357 1354 1352 1350 1348 1347 1346 1345 1343 1342 1341 1340 1339 1339 1338 1337 1337 1336 1336 1335 1335 1334 1334 1333 1333 1332 1332 1332 1332 1331 1331 1331 1331 1331 1331 1331 1331 1331 1331 1330 1330 1329 1328
1385 1385 1383 1381 1379 1377 1375 1372 1369 1368 1366 1364 1363 1362 1360 1357 1354 1352 1352 1352 1351 1350 1348 1345 1343 1342 1341 1340 1339 1337 1336 1335 1334 1334 1333 1332 1332 1331 1331 1331 1330 1330 1329 1329 1329 1328 1328 1327 1328 1327 1327 1328 1327 1327 1328 1328 1328 1328 1328 1327 1327 1326 1326
1378 1377 1376 1375 1373 1372 1370 1367 1364 1362 1360 1359 1358 1357 1355 1352 1349 1347 1347 1346 1345 1344 1342 1340 1338 1337 1336 1335 1334 1332 1331 1330 1329 1328 1328 1327 1327 1326 1326 1326 1325 1325 1325 1324 1324 1324 1323 1323 1323 1323 1323 1323 1323 1323 1324 1324 1324 1324 1324 1324 1324 1323 1323
Wind_Speed
8 7 6 6 5 5 5 5 5 6 6 7 7 7 8 8 8 9 9 10 10 11 12 13 13 14 14 15 15 16 16 17 17 18 18 19 20 20 21 22 23 26 31 30 28 29 30 30 31 32 31 31 32 31 31 32 32 33 33 33 33 33 33
8 7 6 6 6 5 5 5 6 6 7 7 7 8 8 9 9 10 10 10 11 12 13 13 14 14 15 15 16 16 17 18 18 19 19 19 21 22 22 23 25 27 31 33 32 31 32 31 32 33 32 32 32 32 32 32 32 33 33 33 32 32 32
8 7 6 6 6 5 6 6 6 7 7 8 8 9 9 10 10 11 11 12 12 13 13 14 15 15 16 16 17 17 18 19 19 20 21 21 21 23 23 23 25 27 30 33 34 33 33 33 33 33 34 33 33 33 33 34 33 33 33 32 32 32 32
8 7 6 6 6 6 6 7 7 8 8 8 9 10 10 11 12 12 12 13 13 14 15 15 16 17 17 17 18 18 19 20 20 21 22 23 23 24 25 25 25 26 29 32 35 35 34 33 33 33 33 33 34 33 33 33 34 34 34 33 32 32 32
8 7 6 6 7 7 7 8 8 8 9 9 10 11 11 12 13 13 14 14 14 15 16 16 17 18 18 19 19 20 20 21 22 22 23 24 24 25 26 26 27 27 29 31 34 36 35 34 33 33 33 32 33 34 33 34 34 34 34 34 33 31 31
8 7 7 7 8 8 8 8 9 9 9 10 11 12 12 13 14 14 15 16 16 17 17 18 18 19 20 20 21 21 22 22 23 23 24 25 25 26 27 28 28 28 29 31 33 35 35 34 33 33 32 31 31 33 34 34 33 32 31 32 33 32 31
8 8 8 8 9 9 8 8 9 9 10 11 12 13 13 14 15 16 16 17 18 18 19 19 20 20 21 22 22 22 23 23 24 25 26 26 27 28 28 29 30 30 31 32 33 35 35 34 34 33 33 32 31 32 31 28 29 31 32 32 33 33 31
9 9 9 9 9 9 8 9 9 10 11 12 13 14 15 16 16 17 18 18 19 20 20 21 21 22 22 23 23 24 24 24 24 25 26 27 27 28 29 30 31 32 33 33 34 35 34 34 34 33 33 32 29 29 28 25 27 33 35 34 33 34 32
9 9 9 9 8 8 8 9 10 11 12 13 14 15 16 16 17 18 19 19 20 21 21 22 22 23 23 24 24 25 25 25 25 25 26 27 28 29 30 31 32 32 33 34 35 35 33 34 35 33 33 32 30 28 29 29 31 34 35 34 34 34 31
9 9 9 8 8 8 8 9 11 12 13 14 15 16 16 17 18 19 20 20 21 22 23 23 24 24 24 25 26 26 26 26 26 26 26 27 28 28 29 31 32 33 33 34 36 36 35 35 37 36 33 32 30 27 28 30 31 32 33 33 33 34 29
9 9 8 8 8 9 10 11 12 13 14 15 16 17 18 19 19 20 21 22 23 24 24 25 26 26 26 26 27 28 28 28 28 28 27 27 27 27 28 29 31 32 33 33 35 36 36 36 38 37 33 31 29 27 26 28 30 31 32 30 29 31 30
9 8 7 8 9 10 11 12 13 14 15 16 17 18 19 20 21 21 22 23 24 24 25 26 26 27 27 28 28 28 29 30 30 30 30 30 29 29 29 28 29 30 30 32 33 35 35 36 37 37 35 33 32 32 30 30 31 31 30 28 27 29 31
9 8 8 8 9 10 11 12 13 14 15 16 17 19 20 21 21 22 23 24 25 25 25 26 27 28 29 29 29 30 30 31 32 32 32 32 32 32 31 29 28 28 27 29 31 34 35 35 35 37 36 34 34 34 33 32 33 31 28 28 28 29 31
9 8 9 9 10 11 12 13 14 15 16 17 18 19 21 22 23 23 24 24 25 26 26 27 28 29 30 30 30 30 31 32 32 33 33 33 33 33 32 30 29 27 26 26 28 31 34 33 33 35 35 34 33 32 31 31 31 29 27 28 30 31 31
9 9 9 10 11 12 13 14 14 15 17 18 20 21 23 24 24 24 25 25 25 26 27 27 28 29 30 30 29 29 30 31 32 32 33 32 32 32 31 30 30 28 26 26 26 29 31 30 30 31 31 31 29 28 28 27 27 27 27 29 30 29 29
9 10 10 10 11 12 13 15 15 17 19 20 22 23 24 25 25 25 25 25 25 26 27 27 28 29 29 29 28 28 28 29 30 31 32 32 31 31 31 31 30 29 28 26 26 28 29 29 28 27 27 25 23 24 25 25 27 27 25 24 25 24 24
10 10 10 11 12 13 14 16 17 19 21 22 24 25 25 25 26 25 26 25 25 26 27 27 27 28 28 28 27 27 28 28 29 31 31 31 31 31 31 31 30 29 28 27 27 27 27 27 27 25 25 22 21 23 25 25 27 26 22 20 22 22 21
10 10 11 12 13 14 14 17 19 21 22 23 25 25 26 26 26 26 26 26 26 27 27 27 27 27 27 28 27 28 28 29 30 31 31 32 32 32 32 31 29 28 29 29 29 28 26 25 26 25 25 24 24 27 28 28 30 30 27 26 25 23 21
11 12 12 13 13 15 16 18 21 23 24 24 25 25 26 26 27 27 27 27 27 28 28 28 28 27 27 27 28 29 29 29 30 31 31 31 31 33 32 29 27 28 29 29 30 29 27 24 24 24 25 24 24 27 29 31 34 34 32 29 26 23 22
12 12 12 13 14 17 19 20 22 23 24 24 24 25 26 26 27 27 28 28 28 29 29 29 29 29 29 28 29 30 30 30 30 30 30 30 30 31 29 27 27 28 28 29 30 30 28 25 22 21 22 23 23 24 26 28 30 30 29 27 26 24 23
11 11 13 15 17 18 20 21 22 23 24 24 25 25 26 27 27 27 28 29 30 30 31 31 30 30 30 30 30 31 31 31 30 28 29 29 29 29 27 25 27 28 28 29 30 29 28 26 23 21 21 22 23 23 24 25 26 26 25 24 25 25 25
12 13 15 17 19 20 21 22 22 23 23 24 25 26 27 28 28 28 30 31 32 32 32 32 31 30 30 30 31 32 32 32 30 29 29 28 27 26 25 25 27 29 29 29 29 28 27 26 24 23 22 23 23 23 23 24 24 24 24 24 25 25 27
15 16 18 19 20 21 21 22 22 23 24 25 26 27 28 29 30 30 31 32 33 33 33 32 31 31 31 31 31 32 32 31 30 30 29 28 27 26 25 25 27 28 29 29 28 28 27 26 26 24 23 23 23 23 24 24 24 25 26 26 27 26 27
17 18 20 20 21 21 22 23 23 24 25 26 27 28 29 30 31 31 31 33 34 34 33 32 32 32 32 32 32 32 32 31 30 30 29 28 27 26 26 26 27 28 29 29 29 29 28 28 26 25 24 23 23 24 25 25 25 25 26 27 27 27 26
19 20 21 22 22 22 23 24 24 25 25 26 27 28 29 31 31 31 32 33 34 34 33 33 33 33 33 33 33 32 32 31 31 30 28 27 27 27 27 27 27 27 27 27 29 30 29 28 27 25 25 25 25 25 26 26 25 25 25 26 26 26 26
20 21 22 23 24 24 24 24 25 26 27 28 29 30 30 31 32 32 33 34 34 34 33 33 33 33 33 34 33 32 31 31 30 28 27 27 27 27 27 27 26 26 26 27 29 30 29 28 27 26 27 28 27 25 25 26 26 26 25 25 26 26 26
21 22 23 24 25 25 25 26 26 27 28 30 31 31 31 32 33 33 34 35 35 34 33 34 34 34 35 34 32 30 29 28 27 27 26 26 26 26 26 25 25 25 26 28 29 29 29 28 28 28 29 29 28 26 26 26 26 25 25 25 26 27 27
22 23 24 25 26 27 28 29 28 28 29 30 31 31 32 33 34 34 35 36 35 34 35 36 36 37 37 35 32 29 28 26 26 26 25 25 24 23 24 24 25 25 27 28 29 29 29 29 28 28 29 28 28 27 26 25 25 25 24 24 25 27 27
23 23 24 26 28 28 30 31 30 29 29 30 30 31 32 33 34 35 35 36 35 35 36 37 37 38 38 35 33 31 30 28 27 26 26 24 22 21 21 23 24 26 27 27 28 28 28 27 27 28 28 28 28 26 25 25 24 24 24 24 25 26 27
24 25 26 29 30 30 31 32 31 30 30 30 30 31 32 33 34 35 36 35 34 34 35 36 37 37 37 34 34 33 32 30 29 28 27 26 25 23 21 21 23 24 26 26 26 27 26 26 27 27 28 28 27 26 25 25 24 23 23 24 24 25 25
26 27 28 30 32 32 33 32 32 31 31 30 30 31 32 33 34 35 35 34 32 33 34 35 36 38 36 35 35 35 33 31 30 30 29 28 27 25 23 22 21 22 23 25 25 26 26 27 27 27 27 27 27 26 25 24 23 23 22 23 23 24 25
28 29 30 31 32 33 34 34 33 33 32 31 31 32 33 34 35 35 34 31 30 32 35 36 37 38 37 35 36 36 34 32 32 31 30 29 28 26 24 23 21 20 21 23 24 26 26 27 27 27 27 26 26 26 25 24 23 22 22 22 23 23 24
30 30 31 32 32 33 34 34 34 33 32 32 32 32 33 34 34 34 32 30 30 33 35 36 37 38 37 36 36 36 35 34 33 32 31 30 29 27 25 23 22 21 22 23 25 25 26 27 27 26 26 26 26 26 24 23 23 22 21 22 22 22 23
32 31 31 32 33 34 34 34 34 33 32 32 31 31 31 32 34 34 32 30 31 33 35 36 37 37 36 36 36 37 36 35 34 33 32 31 29 27 25 23 22 22 23 24 24 25 26 27 27 27 26 26 26 25 25 24 23 22 22 22 22 22 22
34 33 33 33 34 35 35 34 33 32 32 31 31 30 30 31 34 35 33 32 31 32 33 34 35 35 35 34 35 36 36 35 34 33 32 31 30 28 26 25 23 23 24 24 24 25 26 27 27 27 27 27 26 26 26 26 25 24 24 23 23 22 22
37 36 36 36 35 34 33 32 32 32 32 31 30 28 28 31 34 34 34 33 32 31 32 32 33 33 33 33 33 34 34 34 33 32 31 31 30 29 28 27 25 24 24 24 24 25 26 26 27 27 27 28 28 28 27 27 26 26 25 25 24 23 23
Wind_Direction
180 180 185 193 204 215 226 242 259 272 282 289 295 301 305 309 312 314 316 318 319 319 317 317 317 316 316 316 315 314 312 311 310 308 306 304 302 301 299 298 296 293 296 299 300 300 301 302 302 302 303 303 303 303 302 301 301 301 301 301 300 300 299
184 187 194 204 214 224 237 252 264 274 283 290 296 303 307 310 314 315 317 319 318 318 316 315 315 315 315 314 312 311 310 308 307 305 303 302 300 299 299 298 298 297 297 299 300 300 300 301 301 302 303 303 303 303 302 300 300 299 299 300 300 299 298
190 196 204 216 228 242 254 264 273 280 288 296 302 307 310 314 317 317 319 320 319 318 317 316 316 315 315 314 313 312 310 308 307 305 303 302 300 299 298 297 297 297 297 298 299 300 300 301 302 302 303 304 304 304 303 302 301 300 299 299 299 299 298
198 206 215 228 244 258 267 275 283 289 296 302 307 311 313 315 317 318 319 319 318 318 317 316 317 316 315 315 313 312 311 308 307 306 304 303 303 301 300 299 298 297 296 296 297 299 300 301 302 302 303 305 305 304 304 303 303 302 300 298 298 299 298
206 215 228 242 255 266 274 282 289 294 300 305 308 312 314 315 317 317 317 318 318 318 318 318 317 316 316 315 314 313 311 309 308 307 305 305 305 303 303 302 301 300 298 297 297 299 300 301 302 302 303 305 306 305 304 303 303 302 301 300 300 299 298
215 225 240 252 262 270 276 283 290 296 302 307 310 313 315 317 318 318 318 319 319 319 320 319 318 317 316 315 314 313 312 310 310 308 307 307 306 305 304 303 302 301 299 298 297 298 300 302 303 303 304 305 305 304 304 305 304 302 301 302 302 300 299
223 234 246 256 264 271 279 287 294 301 306 310 314 316 318 319 318 318 319 320 320 321 320 320 318 317 316 315 314 313 312 312 310 309 308 308 307 306 305 304 303 302 301 300 299 299 301 303 304 305 306 307 307 306 307 307 303 300 301 302 302 300 300
229 240 249 258 266 274 284 293 299 306 310 313 317 318 319 319 318 319 319 320 320 320 319 318 317 315 314 313 313 312 312 312 310 309 308 308 307 305 304 304 303 302 302 302 301 301 302 304 306 307 309 309 309 307 305 302 298 299 301 302 301 299 301
235 244 251 259 267 277 289 298 304 310 313 315 316 317 317 317 317 317 318 318 318 317 316 315 314 314 313 312 311 311 311 310 309 308 307 306 305 304 303 302 301 301 301 301 301 301 302 304 305 307 308 307 305 302 300 299 299 299 300 301 300 298 300
242 249 256 264 276 288 298 305 310 313 315 315 314 314 314 314 315 316 316 316 316 315 315 314 313 313 312 312 312 311 311 310 310 308 307 305 303 302 301 300 299 298 298 298 299 299 300 301 302 303 303 301 300 299 299 301 301 300 300 301 301 298 298
247 254 264 277 290 300 306 311 314 315 315 314 312 313 313 314 314 315 315 315 314 314 314 314 313 313 313 313 313 312 311 311 310 308 306 303 301 299 296 295 294 294 295 295 295 295 296 297 298 299 299 298 297 297 299 300 299 299 300 300 299 296 296
249 257 271 284 294 302 307 310 312 312 311 311 310 311 312 312 313 314 313 312 312 312 312 312 312 312 311 312 311 311 310 309 308 307 305 303 301 299 296 294 293 293 293 293 292 291 292 292 293 295 294 293 294 296 297 297 296 297 297 295 293 292 294
251 260 274 284 291 298 302 304 306 306 306 306 306 307 308 308 309 309 309 309 309 310 310 310 309 309 309 310 310 309 308 306 305 304 303 302 301 300 299 298 296 295 293 290 287 286 287 288 289 289 290 290 293 295 296 295 295 295 293 290 288 288 290
255 263 273 282 288 293 296 299 301 302 302 303 303 303 304 304 305 305 306 307 307 307 307 307 307 307 307 307 306 306 304 302 301 301 300 299 299 299 299 299 298 297 293 288 283 282 285 286 285 285 288 289 290 292 292 293 293 292 288 286 287 288 290
257 265 273 280 287 293 296 299 300 300 301 302 302 302 303 303 304 304 304 304 304 304 304 304 304 304 303 302 302 301 300 299 299 298 297 297 297 298 298 298 298 297 293 290 286 283 284 286 285 285 285 286 288 290 292 291 289 286 286 288 290 292 294
261 269 277 283 290 296 298 299 300 301 302 302 302 302 302 302 302 301 301 301 301 301 302 302 301 301 300 300 300 300 299 298 298 297 297 297 297 298 299 298 298 297 294 293 290 288 288 288 287 285 284 286 290 291 288 283 281 281 283 287 289 290 292
267 275 284 290 295 297 298 299 300 301 302 302 302 302 301 301 301 301 301 302 302 301 301 301 301 301 300 301 301 301 300 299 299 298 299 299 300 300 299 298 298 296 294 292 289 289 290 290 289 285 279 275 272 269 270 271 274 277 278 280 284 287 289
274 283 288 291 293 294 296 298 300 301 302 302 301 301 301 301 301 301 302 302 302 301 301 301 301 302 302 303 304 304 303 302 301 300 300 300 299 298 297 297 298 295 291 289 287 287 288 289 289 286 279 270 258 253 255 260 266 270 274 276 279 283 287
278 282 284 286 291 295 298 300 301 301 301 301 301 300 300 300 300 300 302 302 302 302 301 301 302 303 304 305 305 304 303 301 299 298 298 298 297 296 297 299 297 293 290 289 289 289 290 290 289 288 284 278 268 258 255 257 260 266 270 274 275 278 283
275 279 283 289 294 297 298 300 300 300 300 301 301 300 300 299 300 300 301 301 300 301 301 302 303 303 304 304 303 301 299 298 297 296 296 295 293 294 297 298 293 290 289 290 290 291 294 294 293 290 286 282 276 268 262 260 260 263 266 269 272 275 278
276 282 287 292 295 297 299 300 300 301 302 301 300 299 298 297 298 298 299 298 298 299 300 301 302 302 303 302 299 298 297 296 297 297 295 293 292 293 295 293 289 288 289 289 290 293 296 298 300 298 293 288 283 277 271 267 266 267 267 267 270 274 277
281 286 290 293 297 299 300 301 301 301 301 299 298 297 295 295 296 296 296 297 297 298 298 298 299 299 300 298 297 296 296 297 298 296 293 291 291 291 291 288 286 286 286 286 289 291 293 295 298 297 293 291 289 286 281 276 273 272 271 268 269 273 276
285 289 293 296 298 300 299 299 299 299 298 296 295 293 293 294 295 295 296 296 296 297 297 297 298 298 297 296 295 295 296 296 296 295 293 293 292 291 290 286 283 282 282 283 284 284 286 289 292 292 290 289 288 286 283 279 276 274 274 274 275 276 277
288 292 295 296 297 297 297 297 297 297 295 294 292 292 293 294 294 295 295 294 294 295 296 296 297 297 296 296 295 296 296 297 296 295 295 294 293 291 287 284 281 280 281 281 280 280 283 285 286 287 287 286 283 281 281 281 280 279 278 279 280 281 281
292 294 295 295 295 295 295 296 297 296 295 294 293 293 293 293 294 294 294 293 294 295 295 296 296 296 296 296 296 297 297 297 296 295 295 293 290 286 283 280 278 278 277 276 277 280 281 281 281 283 285 285 283 281 282 284 284 284 283 283 283 283 283
292 293 293 294 294 294 295 297 297 298 297 296 294 294 294 293 293 293 292 291 292 293 294 294 294 294 295 295 296 297 297 296 296 295 293 291 287 284 282 279 277 275 272 270 274 279 279 277 278 281 282 284 285 284 283 284 286 286 287 286 286 286 285
290 291 292 293 294 296 297 298 298 299 298 296 295 295 295 294 292 292 291 291 292 294 295 295 295 295 294 293 294 295 294 293 294 294 292 291 290 286 282 278 275 272 268 267 269 272 272 273 276 278 279 281 284 284 283 285 286 286 287 286 286 286 287
289 291 293 295 297 299 300 299 299 299 297 295 295 295 294 294 293 294 295 296 298 300 299 298 297 296 295 295 296 296 295 295 296 295 293 293 292 287 282 276 271 267 265 266 267 268 269 272 274 275 277 279 280 282 283 285 285 285 285 285 284 285 287
291 294 296 297 298 300 300 299 300 299 296 295 295 295 295 296 296 297 297 297 299 299 297 296 296 295 295 299 302 301 300 300 299 298 297 296 294 288 279 272 268 267 265 266 268 269 270 272 272 272 274 276 278 280 282 283 283 284 285 284 283 284 287
294 297 298 298 298 298 298 298 300 299 297 297 297 297 296 296 296 295 294 294 296 295 293 293 293 293 295 299 300 298 298 298 298 298 298 298 297 291 283 273 268 268 267 267 267 269 270 271 270 271 272 274 277 280 281 281 283 283 284 284 284 285 287
295 296 296 297 298 299 299 299 299 299 298 298 297 296 295 295 294 292 291 292 293 291 289 290 291 292 294 295 294 293 294 295 296 296 296 296 296 293 288 279 270 267 267 267 266 266 266 267 268 269 271 272 275 277 278 279 281 282 283 285 285 285 286
294 296 297 298 299 299 300 300 299 299 299 298 297 296 295 294 291 289 289 290 289 287 288 289 288 288 290 290 289 290 291 292 292 293 293 293 292 291 287 282 274 269 265 263 262 262 263 264 265 266 268 270 271 273 274 275 278 281 283 285 286 286 287
296 298 299 299 298 297 298 299 300 299 299 297 295 294 293 291 288 287 287 288 287 285 286 286 284 284 286 287 287 288 289 289 289 289 289 289 288 287 284 281 276 269 263 260 260 261 261 261 262 263 265 267 268 270 271 272 274 278 282 285 287 288 288
299 299 298 297 297 298 299 300 300 298 295 294 292 291 290 289 286 286 286 285 283 283 283 283 283 283 285 287 287 287 288 288 287 286 286 286 285 284 282 278 274 269 263 261 261 261 260 260 261 261 262 264 265 266 267 269 272 276 280 283 287 289 289
299 298 298 299 299 301 302 301 298 295 292 291 291 290 289 286 284 284 285 285 284 283 284 284 284 285 287 288 287 286 286 286 285 284 284 283 283 282 280 277 273 270 266 264 263 263 262 262 261 261 261 261 262 262 264 267 270 274 277 281 285 287 288
299 301 301 300 300 301 301 298 294 292 290 290 290 288 285 283 283 285 288 289 289 288 288 287 287 288 288 287 286 285 285 285 284 283 282 280 280 279 278 277 275 272 270 267 265 263 263 263 262 261 261 260 260 260 262 264 268 271 275 279 282 284 285